Jackson, WY

7:22 AM MDT on June 28, 2017 (GMT -0600)
Jackson Hole

Weather History for KJAC - May, 2013

Change the Weather History Date:

Sunday, May 26, 2013

  Actual Average Record
Temperature  
Mean Temperature 52 °F -  
Max Temperature 68 °F 63 °F 77 °F (1969)
Min Temperature 35 °F 32 °F 18 °F (1975)
Degree Days  
Heating Degree Days 14    
Growing Degree Days 2 (Base 50)    
Moisture  
Dew Point 33 °F    
Average Humidity 62    
Maximum Humidity 87    
Minimum Humidity 21    
Precipitation  
Precipitation 0.00 in - - ()
Sea Level Pressure  
Sea Level Pressure 30.00 in    
Wind  
Wind Speed 6 mph (NNW)    
Max Wind Speed 16 mph    
Max Gust Speed 31 mph    
Visibility 10 miles    
Events      
Averages and records for this station are not official NWS values.
T = Trace of Precipitation, MM = Missing Value Source: NWS Daily Summary

Daily Weather History Graph

Daily Weather History Graph

Search for Another Location

Airport or City:

Trip Planner

Search our weather history database for the weather conditions in past years. The results will help you decide how hot, cold, wet, or windy it might be!

Date:

Astronomy

May. 26, 2013 Rise Set
Actual Time 5:47 AM MDT 8:52 PM MDT
Civil Twilight 5:13 AM MDT 9:27 PM MDT
Nautical Twilight 4:29 AM MDT 10:11 PM MDT
Astronomical Twilight 3:36 AM MDT 11:04 PM MDT
Moon 10:42 PM MDT (5/26) 7:21 AM MDT (5/26)
Length of Visible Light 16h 13m
Length of Day
15h 04m
Waning Gibbous, 96% of the Moon is Illuminated
May 26
Waning Gibbous
May 31
Last Quarter
Jun 8
New
Jun 16
First Quarter
Jun 23
Full

Hourly Weather History & Observations

Time (MDT) Temp. Windchill Dew Point Humidity Pressure Visibility Wind Dir Wind Speed Gust Speed Precip Events Conditions
12:16 AM 42.8 °F - 32.0 °F 66% 30.03 in 10.0 mi Calm Calm - N/A   Clear
12:35 AM 39.2 °F 37.0 °F 33.8 °F 81% 30.03 in 10.0 mi North 3.5 mph - N/A   Clear
12:55 AM 39.2 °F 35.9 °F 32.0 °F 75% 30.03 in 10.0 mi NE 4.6 mph - N/A   Clear
1:15 AM 37.4 °F 30.8 °F 32.0 °F 81% 30.02 in 10.0 mi North 9.2 mph - N/A   Clear
1:35 AM 39.2 °F 32.5 °F 33.8 °F 81% 30.02 in 10.0 mi North 10.4 mph - N/A   Clear
1:55 AM 41.0 °F 35.2 °F 33.8 °F 76% 30.02 in 10.0 mi North 9.2 mph - N/A   Clear
2:15 AM 39.2 °F 34.2 °F 32.0 °F 75% 30.01 in 10.0 mi NNW 6.9 mph - N/A   Clear
2:35 AM 39.2 °F 35.9 °F 32.0 °F 75% 30.01 in 10.0 mi NNW 4.6 mph - N/A   Clear
2:55 AM 37.4 °F - 33.8 °F 87% 30.02 in 10.0 mi Calm Calm - N/A   Clear
3:15 AM 35.6 °F 28.6 °F 32.0 °F 87% 30.02 in 10.0 mi NW 9.2 mph - N/A   Clear
3:35 AM 37.4 °F 32.1 °F 33.8 °F 87% 30.03 in 10.0 mi North 6.9 mph - N/A   Clear
3:55 AM 37.4 °F 31.4 °F 32.0 °F 81% 30.03 in 10.0 mi NE 8.1 mph - N/A   Clear
4:15 AM 37.4 °F 30.8 °F 32.0 °F 81% 30.03 in 10.0 mi East 9.2 mph - N/A   Clear
4:35 AM 37.4 °F 33.8 °F 32.0 °F 81% 30.04 in 10.0 mi West 4.6 mph - N/A   Clear
5:15 AM 37.4 °F 34.9 °F 32.0 °F 81% 30.04 in - NNW 3.5 mph - N/A   Mostly Cloudy
5:55 AM 37.4 °F 34.9 °F 33.8 °F 87% 30.04 in 10.0 mi NNE 3.5 mph - N/A   Mostly Cloudy
6:15 AM 37.4 °F 34.9 °F 33.8 °F 87% 30.04 in 10.0 mi NNE 3.5 mph - N/A   Mostly Cloudy
6:51 AM 39.2 °F - 33.8 °F 81% 30.04 in 10.0 mi Calm Calm - N/A   Partly Cloudy
7:55 AM 42.8 °F 37.5 °F 33.8 °F 70% 30.03 in 10.0 mi NNW 9.2 mph - N/A   Partly Cloudy
8:51 AM 44.6 °F - 33.8 °F 66% 30.03 in 10.0 mi Calm Calm - N/A   Clear
9:53 AM 48.2 °F - 35.6 °F 62% 30.03 in 10.0 mi SW 4.6 mph - N/A   Mostly Cloudy
10:51 AM 48.2 °F - 35.6 °F 62% 30.02 in 10.0 mi Calm Calm - N/A   Overcast
11:51 AM 53.6 °F - 35.6 °F 51% 30.01 in 10.0 mi South 3.5 mph - N/A   Clear
12:56 PM 60.8 °F - 35.6 °F 39% 29.99 in 10.0 mi West 3.5 mph - N/A   Partly Cloudy
1:52 PM 64.4 °F - 28.4 °F 26% 29.97 in 10.0 mi South 9.2 mph - N/A   Partly Cloudy
2:54 PM 66.2 °F - 28.4 °F 24% 29.94 in 10.0 mi SW 9.2 mph - N/A   Clear
3:55 PM 66.2 °F - 26.6 °F 23% 29.95 in 10.0 mi SSW 12.7 mph 19.6 mph N/A   Scattered Clouds
4:54 PM 68.0 °F - 26.6 °F 21% 29.95 in 10.0 mi South 15.0 mph - N/A   Clear
5:52 PM 66.2 °F - 24.8 °F 21% 29.95 in 10.0 mi SSW 16.1 mph 23.0 mph N/A   Mostly Cloudy
6:59 PM 64.4 °F - 26.6 °F 24% 29.94 in 10.0 mi South 11.5 mph 16.1 mph N/A   Mostly Cloudy
7:51 PM 60.8 °F - 30.2 °F 31% 29.94 in 10.0 mi SW 4.6 mph - N/A   Clear
8:51 PM 57.2 °F - 32.0 °F 38% 29.94 in 10.0 mi Calm Calm - N/A   Clear
8:55 PM 59.0 °F - 32.0 °F 36% 29.94 in 10.0 mi Calm Calm - N/A   Clear
9:35 PM 48.2 °F - 33.8 °F 58% 29.94 in 10.0 mi North 8.1 mph - N/A   Clear
10:15 PM 50.0 °F - 35.6 °F 58% 29.95 in 10.0 mi NNE 5.8 mph - N/A   Partly Cloudy
10:35 PM 48.2 °F - 35.6 °F 62% 29.95 in 10.0 mi WNW 6.9 mph - N/A   Mostly Cloudy
10:55 PM 51.8 °F - 33.8 °F 50% 29.99 in 10.0 mi WSW 15.0 mph 29.9 mph N/A   Overcast
11:15 PM 48.2 °F - 39.2 °F 71% 29.98 in 10.0 mi NW 15.0 mph 31.1 mph N/A   Mostly Cloudy
11:35 PM 48.2 °F - 37.4 °F 66% 29.98 in 10.0 mi North 6.9 mph - N/A   Scattered Clouds
11:55 PM 48.2 °F - 37.4 °F 66% 29.98 in 10.0 mi East 11.5 mph - N/A   Mostly Cloudy